Regional Weather Roundup
Issued by NWS

Home | Current Version | Previous Version | Graphics & Text | Print | Product List | Glossary On
Versions: 1 2 3 4 5 6 7 8 9 10 11 12 13 14 15 16 17 18 19 20 21 22 23 24 25 26 27 28 29 30 31 32 33 34 35 36 37 38 39 40 41 42 43 44 45 46 47 48 49 50
000
ASUS43 KIND 071959
RWRIN

WEATHER ROUNDUP FOR INDIANA
NATIONAL WEATHER SERVICE INDIANAPOLIS IN
400 PM EDT TUE JUL 07 2015

NOTE: "FAIR" INDICATES FEW OR NO CLOUDS BELOW 12,000 FEET WITH NO
SIGNIFICANT WEATHER AND/OR OBSTRUCTIONS TO VISIBILITY.

* - STATION DOES NOT REPORT WEATHER SUCH AS PRECIPITATION OR FOG.

+ - STATION NOT QUALITY CONTROLLED BY THE NATIONAL WEATHER SERVICE.
    USE DATA WITH CAUTION...ESPECIALLY DEWPOINT AND RELATIVE
    HUMIDITY OBSERVATIONS.

INZ001>003-010>013-019-020-072100-
NORTHWEST INDIANA

CITY           SKY/WX    TMP DP  RH WIND       PRES   REMARKS
GARY /AIRPORT/ MOSUNNY   64  52  63 N17G32    30.05S
RENSSELAER +   CLOUDY    66  54  63 N16G26    30.01R

$$

LMZ046-743>745-072100-
SOUTHERN LAKE MICHIGAN

STATION/POSITION TIME  TEMP    WIND        PRES    WAVE
                       AIR SEA DIR/SP/G            HT
                 (UTC) (F)     (DEG/KT/KT) (MB)    (FT)
BURNS HARBOR     1900   60      10/ 18/ 24 1017.6R
MICHIGAN CITY    1900   60     350/ 24/ 28   N/A
5NW MICH CITY    1900   60 65   10/ 17/ 23   N/A     8

$$

INZ004-005-014>016-021>024-072100-
NORTH CENTRAL INDIANA

CITY           SKY/WX    TMP DP  RH WIND       PRES   REMARKS
ELKHART        SUNNY     70  54  56 NW12G18   29.98R
GOSHEN         CLOUDY    69  60  73 NW12      29.96S
SOUTH BEND     MOSUNNY   69  52  54 N14       30.00R

$$

INZ006>009-017-018-025>027-072100-
NORTHEAST INDIANA

CITY           SKY/WX    TMP DP  RH WIND       PRES   REMARKS
ANGOLA *+      CLOUDY    66  57  72 VRB6      29.95R
FORT WAYNE     LGT RAIN  68  65  90 NW13G20   29.94R

$$

INZ028-029-035-036-043>045-051>053-072100-
WEST CENTRAL INDIANA

CITY           SKY/WX    TMP DP  RH WIND       PRES   REMARKS
CRAWFORDSVL +  LGT RAIN  63  61  94 N9        29.96R
GREENCASTLE +  HVY RAIN  66  63  88 N14G21    29.87R
LAFAYETTE      CLOUDY    67  60  78 N12       29.98R
TERRE HAUTE    LGT RAIN  68  67  96 N9        29.96R FOG

$$

INZ030>032-037>040-046>048-054>057-064-065-072100-
CENTRAL INDIANA

CITY           SKY/WX    TMP DP  RH WIND       PRES   REMARKS
ANDERSON       LGT RAIN  72  68  88 CALM      29.95S
COLUMBUS       CLOUDY    75  70  83 SW14      29.93S
GREENWOOD *+   CLOUDY    73  70  88 NE3       29.93F
INDIANAPOLIS   HVY RAIN  72  68  87 E5        29.92S VSB 1
-EAGLE CREEK   RAIN      72  71  97 N5        29.92S FOG
KOKOMO *+      CLOUDY    66  63  88 N14       29.95R
MT COMFORT *+  CLOUDY    72 N/A N/A CALM      29.93S
SHELBYVILLE    LGT RAIN  75  70  84 CALM      29.92F

$$

INZ033-034-041-042-049-050-058-059-072100-
EAST CENTRAL INDIANA

CITY           SKY/WX    TMP DP  RH WIND       PRES   REMARKS
MUNCIE         RAIN      71  69  93 SW7       29.93S FOG

$$

INZ060-061-067>069-081>083-085>088-072100-
SOUTHWEST INDIANA

CITY           SKY/WX    TMP DP  RH WIND       PRES   REMARKS
EVANSVILLE     RAIN      74  71  91 SW14G23   30.00R FOG
HUNTINGBURG *+ CLOUDY    75  72  88 SW13      29.99R

$$

INZ062-063-066-070>080-084-089>092-072100-
SOUTH CENTRAL AND SOUTHEAST INDIANA

CITY           SKY/WX    TMP DP  RH WIND       PRES   REMARKS
BLOOMINGTON    LGT RAIN  73  71  93 W10       29.94R
MADISON *+     CLOUDY    77  72  83 SW10      29.99S
SEYMOUR +      DRIZZLE   77  73  88 S10       29.94S

$$



USA.gov is the U.S. government's official web portal to all federal, state and local government web resources and services.